TimeIST,TemperatureF,Dew PointF,Humidity,Sea Level PressureIn,VisibilityMPH,Wind Direction,Wind SpeedMPH,Gust SpeedMPH,PrecipitationIn,Events,Conditions,WindDirDegrees,DateUTC
12:00 AM,64.4,59.0,83,30.48,6.2,NW,5.8,-,N/A,,Scattered Clouds,320,2013-07-06 23:00:00
12:30 AM,62.6,59.0,88,30.48,6.2,NW,6.9,-,N/A,,Scattered Clouds,320,2013-07-06 23:30:00
1:00 AM,63,59,83,30.49,28,NW,6.7,,,,Scattered Clouds,320,2013-07-07 00:00:00
1:00 AM,62.6,59.0,88,30.48,6.2,NW,6.9,-,N/A,,Scattered Clouds,320,2013-07-07 00:00:00
1:30 AM,62.6,59.0,88,30.48,6.2,NW,6.9,-,N/A,,Scattered Clouds,310,2013-07-07 00:30:00
2:00 AM,60.8,59.0,94,30.48,6.2,NW,6.9,-,N/A,,Scattered Clouds,320,2013-07-07 01:00:00
2:30 AM,60.8,59.0,94,30.48,6.2,NW,8.1,-,N/A,,Scattered Clouds,320,2013-07-07 01:30:00
3:00 AM,60.8,59.0,94,30.48,6.2,NNW,8.1,-,N/A,,Scattered Clouds,340,2013-07-07 02:00:00
3:30 AM,60.8,59.0,94,30.48,6.2,NW,6.9,-,N/A,,Scattered Clouds,320,2013-07-07 02:30:00
4:00 AM,60.8,59.0,94,30.48,6.2,NNW,8.1,-,N/A,,Scattered Clouds,330,2013-07-07 03:00:00
4:30 AM,59.0,59.0,100,30.48,6.2,NNW,8.1,-,N/A,,Scattered Clouds,330,2013-07-07 03:30:00
5:00 AM,59.0,57.2,94,30.48,0.5,NW,6.9,-,N/A,Fog,Fog,320,2013-07-07 04:00:00
5:30 AM,57.2,57.2,100,30.48,0.2,NNW,8.1,-,N/A,Fog,Fog,330,2013-07-07 04:30:00
6:00 AM,57.2,57.2,100,30.48,0.1,NW,6.9,-,N/A,Fog,Fog,320,2013-07-07 05:00:00
6:30 AM,57.2,57.2,100,30.48,0.1,NNW,9.2,-,N/A,Fog,Fog,330,2013-07-07 05:30:00
7:00 AM,58,58,100,30.51,0,NW,8.9,,,Fog,Partial Fog,320,2013-07-07 06:00:00
7:00 AM,59.0,59.0,100,30.51,0.1,NW,8.1,-,N/A,Fog,Fog,320,2013-07-07 06:00:00
7:30 AM,59.0,59.0,100,30.51,0.2,NNW,6.9,-,N/A,Fog,Fog,330,2013-07-07 06:30:00
8:00 AM,59.0,59.0,100,30.51,0.4,NNW,6.9,-,N/A,,Unknown,340,2013-07-07 07:00:00
8:30 AM,60.8,60.8,100,30.54,3.1,North,4.6,-,N/A,Fog,Fog,350,2013-07-07 07:30:00
9:00 AM,62.6,62.6,100,30.54,5.0,NNW,8.1,-,N/A,,Partly Cloudy,340,2013-07-07 08:00:00
9:30 AM,66.2,62.6,88,30.54,6.2,NNW,5.8,-,N/A,,Partly Cloudy,340,2013-07-07 08:30:00
10:00 AM,66.2,62.6,88,30.54,6.2,NNW,3.5,-,N/A,,Partly Cloudy,340,2013-07-07 09:00:00
10:30 AM,68.0,62.6,83,30.54,6.2,North,4.6,-,N/A,,Partly Cloudy,350,2013-07-07 09:30:00
11:00 AM,69.8,62.6,78,30.54,6.2,NNW,5.8,-,N/A,,Partly Cloudy,330,2013-07-07 10:00:00
11:30 AM,71.6,62.6,73,30.54,6.2,Variable,2.3,-,N/A,,Partly Cloudy,0,2013-07-07 10:30:00
12:00 PM,73.4,64.4,73,30.54,6.2,NE,5.8,-,N/A,,Partly Cloudy,40,2013-07-07 11:00:00
12:30 PM,73.4,62.6,69,30.54,6.2,NE,4.6,-,N/A,,Scattered Clouds,50,2013-07-07 11:30:00
1:00 PM,74,62,57,30.54,16,ENE,6.7,,,,Partly Cloudy,70,2013-07-07 12:00:00
1:00 PM,73.4,60.8,65,30.54,6.2,ENE,5.8,-,N/A,,Scattered Clouds,70,2013-07-07 12:00:00
1:30 PM,75.2,62.6,65,30.54,6.2,ESE,5.8,-,N/A,,Scattered Clouds,110,2013-07-07 12:30:00
2:00 PM,77.0,64.4,65,30.54,6.2,East,6.9,-,N/A,,Scattered Clouds,80,2013-07-07 13:00:00
2:30 PM,73.4,64.4,73,30.54,6.2,ESE,10.4,-,N/A,,Scattered Clouds,110,2013-07-07 13:30:00
3:00 PM,73.4,64.4,73,30.54,6.2,East,9.2,-,N/A,,Scattered Clouds,100,2013-07-07 14:00:00
3:30 PM,73.4,64.4,73,30.54,6.2,ESE,10.4,-,N/A,,Scattered Clouds,110,2013-07-07 14:30:00
4:00 PM,73.4,64.4,73,30.54,6.2,ESE,11.5,-,N/A,,Partly Cloudy,120,2013-07-07 15:00:00
4:30 PM,71.6,64.4,78,30.54,6.2,ESE,11.5,-,N/A,,Partly Cloudy,120,2013-07-07 15:30:00
5:00 PM,71.6,62.6,73,30.54,6.2,ESE,11.5,-,N/A,,Partly Cloudy,110,2013-07-07 16:00:00
5:30 PM,69.8,60.8,73,30.54,6.2,ESE,10.4,-,N/A,,Partly Cloudy,120,2013-07-07 16:30:00
6:00 PM,69.8,60.8,73,30.54,6.2,SE,9.2,-,N/A,,Partly Cloudy,130,2013-07-07 17:00:00
6:30 PM,68.0,59.0,73,30.54,6.2,SE,9.2,-,N/A,,Partly Cloudy,130,2013-07-07 17:30:00
7:00 PM,67,58,66,30.54,19,ESE,8.9,,,,Scattered Clouds,120,2013-07-07 18:00:00
7:00 PM,68.0,59.0,73,30.54,6.2,ESE,9.2,-,N/A,,Partly Cloudy,120,2013-07-07 18:00:00
7:30 PM,66.2,59.0,78,30.54,6.2,ESE,6.9,-,N/A,,Partly Cloudy,120,2013-07-07 18:30:00
8:00 PM,66.2,59.0,78,30.54,6.2,ESE,6.9,-,N/A,,Partly Cloudy,120,2013-07-07 19:00:00
8:30 PM,66.2,60.8,83,30.54,6.2,ESE,4.6,-,N/A,,Partly Cloudy,120,2013-07-07 19:30:00
9:00 PM,64.4,59.0,83,30.54,6.2,ESE,5.8,-,N/A,,Partly Cloudy,120,2013-07-07 20:00:00
9:30 PM,62.6,59.0,88,30.54,6.2,ESE,4.6,-,N/A,,Partly Cloudy,120,2013-07-07 20:30:00
10:00 PM,60.8,59.0,94,30.57,6.2,East,4.6,-,N/A,,Partly Cloudy,100,2013-07-07 21:00:00
10:30 PM,60.8,59.0,94,30.57,6.2,East,4.6,-,N/A,,Partly Cloudy,90,2013-07-07 21:30:00
11:00 PM,60.8,59.0,94,30.57,6.2,East,4.6,-,N/A,,Partly Cloudy,90,2013-07-07 22:00:00
11:30 PM,60.8,59.0,94,30.57,6.2,ENE,4.6,-,N/A,,Partly Cloudy,70,2013-07-07 22:30:00